Weather History for Cheyenne, WY

Change the Weather History Date:

Wednesday, January 30, 2013

  Actual Average Record
Temperature  
Mean Temperature 19 °F 28 °F  
Max Temperature 32 °F 39 °F 62 °F (1986)
Min Temperature 5 °F 18 °F -16 °F (1985)
Degree Days  
Heating Degree Days 46 37  
Month to date heating degree days 1114 1086  
Since 1 July heating degree days 3816 3989  
Cooling Degree Days 0 0  
Month to date cooling degree days 0 0  
Year to date cooling degree days 0 0  
Moisture  
Dew Point 11 °F    
Average Humidity 63    
Maximum Humidity 80    
Minimum Humidity 45    
Precipitation  
Precipitation 0.00 in 0.01 in 0.46 in (1896)
Month to date precipitation 0.15 0.32  
Year to date precipitation 0.15 0.32  
Snow  
Snow 0.00 in 0.20 in 4.60 in (1896)
Month to date snowfall 3.4 5.7  
Since 1 July snowfall 28.8 28.4  
Snow Depth 0.00 in    
Sea Level Pressure  
Sea Level Pressure 29.94 in    
Wind  
Wind Speed 17 mph (NW)    
Max Wind Speed 35 mph    
Max Gust Speed 47 mph    
Visibility 10 miles    
Events      
T = Trace of Precipitation, MM = Missing Value Source: NWS Daily Summary

Daily Weather History Graph

Daily Weather History Graph

Search for Another Location

Airport:

Trip Planner

Search our weather history database for the weather conditions in past years. The results will help you decide how hot, cold, wet, or windy it might be!

Date:

Astronomy

Jan. 30, 2013 Rise Set
Actual Time 7:11 AM MST 5:13 PM MST
Civil Twilight 6:42 AM MST 5:43 PM MST
Nautical Twilight 6:09 AM MST 6:16 PM MST
Astronomical Twilight 5:37 AM MST 6:48 PM MST
Moon 9:18 PM MST (1/30) 8:38 AM MST (1/30)
Length of Visible Light 11h 00m
Length of Day
10h 02m
Waning Gibbous, 87% of the Moon is Illuminated
Jan 30
Waning Gibbous
Feb 3
Last Quarter
Feb 10
New
Feb 17
First Quarter
Feb 25
Full

Hourly Weather History & Observations

Time (MST) Temp. Windchill Dew Point Humidity Pressure Visibility Wind Dir Wind Speed Gust Speed Precip Events Conditions
12:53 AM 7.0 °F -5.7 °F 1.0 °F 77% 30.04 in 10.0 mi WNW 8.1 mph - N/A   Mostly Cloudy
1:53 AM 9.0 °F -7.3 °F 1.0 °F 70% 30.01 in 10.0 mi WNW 13.8 mph - N/A   Clear
2:53 AM 12.0 °F -2.0 °F 1.9 °F 64% 29.99 in 10.0 mi WNW 11.5 mph - N/A   Clear
3:53 AM 10.0 °F -5.2 °F -0.0 °F 64% 29.99 in 10.0 mi West 12.7 mph - N/A   Clear
4:53 AM 10.9 °F -4.7 °F -0.9 °F 59% 30.00 in 10.0 mi WNW 13.8 mph - N/A   Clear
5:53 AM 10.0 °F -2.9 °F -2.0 °F 58% 29.99 in 10.0 mi WNW 9.2 mph - N/A   Mostly Cloudy
6:53 AM 14.0 °F -1.4 °F 1.0 °F 56% 29.96 in 10.0 mi WNW 15.0 mph - N/A   Partly Cloudy
7:53 AM 18.0 °F 8.7 °F 1.9 °F 50% 29.93 in 10.0 mi NNW 6.9 mph - N/A   Overcast
8:53 AM 21.9 °F 6.9 °F 6.1 °F 51% 29.91 in 10.0 mi WNW 19.6 mph 27.6 mph N/A   Mostly Cloudy
9:53 AM 26.1 °F 11.6 °F 10.0 °F 51% 29.92 in 10.0 mi WNW 21.9 mph 39.1 mph N/A   Overcast
10:53 AM 27.0 °F 13.5 °F 16.0 °F 63% 29.93 in 10.0 mi NW 19.6 mph 27.6 mph N/A   Overcast
11:53 AM 28.9 °F 13.7 °F 15.1 °F 56% 29.93 in 10.0 mi WNW 28.8 mph 42.6 mph N/A   Mostly Cloudy
12:53 PM 30.0 °F 15.2 °F 15.1 °F 54% 29.91 in 10.0 mi WNW 28.8 mph 46.0 mph N/A   Mostly Cloudy
1:53 PM 30.0 °F 15.2 °F 14.0 °F 51% 29.90 in 10.0 mi NW 28.8 mph 46.0 mph N/A   Clear
2:53 PM 30.0 °F 16.3 °F 17.1 °F 59% 29.90 in 10.0 mi NW 24.2 mph 41.4 mph N/A   Clear
3:53 PM 30.9 °F 17.8 °F 19.9 °F 64% 29.90 in 10.0 mi NW 23.0 mph 36.8 mph N/A   Partly Cloudy
4:53 PM 28.9 °F 17.3 °F 21.0 °F 72% 29.93 in 10.0 mi NNW 16.1 mph 28.8 mph N/A   Overcast
5:53 PM 28.0 °F 18.1 °F 21.0 °F 75% 29.96 in 10.0 mi NNW 11.5 mph 23.0 mph N/A   Mostly Cloudy
6:53 PM 32.0 °F 19.8 °F 18.0 °F 56% 29.93 in 10.0 mi NW 20.7 mph 33.4 mph N/A   Overcast
7:53 PM 30.9 °F 21.2 °F 18.0 °F 59% 29.90 in 10.0 mi NW 12.7 mph 20.7 mph N/A   Overcast
8:53 PM 30.9 °F 20.7 °F 16.0 °F 54% 29.90 in 10.0 mi WNW 13.8 mph 23.0 mph N/A   Overcast
9:53 PM 30.9 °F 20.2 °F 15.1 °F 52% 29.88 in 10.0 mi NW 15.0 mph 24.2 mph N/A   Clear
10:53 PM 32.0 °F 19.2 °F 14.0 °F 48% 29.88 in 10.0 mi NW 23.0 mph 31.1 mph N/A   Clear
11:53 PM 30.9 °F 19.8 °F 14.0 °F 50% 29.90 in 10.0 mi NW 16.1 mph 23.0 mph N/A   Overcast